Tracking 18945 objects as of 21-Jan-2018
HD Live streaming from Space Station
objects crossing your sky now

SL-16 DEB

Track SL-16 DEB now!
10-day predictions


NORAD ID: 22336
Int'l Code: 1992-093Z
Perigee: 837.7 km
Apogee: 1,015.2 km
Inclination: 71.1 °
Period: 103.4 minutes
Semi major axis: 7297 km
RCS: 0.2247 m2 (medium)
Launch date: December 25, 1992
Source: Commonwealth of Independent States (former USSR) (CIS)
Launch site: TYURATAM MISSILE AND SPACE COMPLEX (TTMTR)

Note: This is SATELLITE DEBRIS
aabbcc
Your satellite tracking list
Your tracking list is empty




NASA's NSSDC Master Catalog

Two Line Element Set (TLE):
1 22336U 92093Z   18020.22047547 -.00000427  00000-0 -27831-3 0  9990
2 22336  71.1309 281.5094 0121562 265.6126 268.3251 13.92664992270123
Source of the keplerian elements: AFSPC